Location: Unspecified
(0.0000°N, 0.0000°E)
Time: 17:33:31
(UTC+00:00)

SR - Pass Details

Date: 14 December 2018
Orbit: 584 x 872 km, 66.7° (Epoch: 20 March)

Event Time Altitude Azimuth Distance (km) Brightness Sun altitude
Rises 01:25:07 0° 217° (SW) 3,423 - -58.0°
Reaches altitude 10° 01:27:47 10° 226° (SW) 2,504 - -57.6°
Maximum altitude 01:33:02 35° 290° (WNW) 1,381 - -56.7°
Drops below altitude 10° 01:38:16 10° 354° (N) 2,493 - -55.7°
Sets 01:40:55 0° 3° (N) 3,407 - -55.3°
